sat.trackr.live / text

‹ back to catalog

STARLINK-36156

NORAD 67006 · 2025-293D

PAYLOAD ACTIVE UNKNOWN

§ Identity

Operator
Country
US
Launch date
2025-12-10
Launch site
AFWTR
Launch vehicle
Mass (kg)
RCS (m²)

Purposes: comms

External: N2YO · Heavens-Above · Gunter

§ Orbital elements

Epoch: 2026-05-25T01:26:25.867104Z

Period
96.11 min
Inclination
70.0007°
Eccentricity
0.0003413
Mean motion
14.98335203 rev/d
Perigee alt
569.7 km
Apogee alt
574.4 km
Semi-major
6,950.2 km
B*
2.8087e-4
RAAN
262.0463°
Arg perigee
269.2747°
Mean anomaly
90.8021°
Rev number
2,632

§ Raw data

STARLINK-361561 67006U 25293D   26145.06002161  .00003260  00000+0  28087-3 0  99922 67006  70.0007 262.0463 0003413 269.2747  90.8021 14.98335203 26327

JSON: /api/v1/satellites/67006 · /tle

For live sub-satellite position, see the globe view (requires WebGL).

§ Visibility from observer

Set your observer location to see the next 7 days of passes ≥ 10°. The values pass through the URL so the page stays shareable.

No JS? Fill the form by hand. The geolocation button needs JavaScript.